Starlink 30841

operational
NORAD ID: 58208 Int'l Des: 2023-170 Owner: SPXS Country: US Constellation: starlink
LEOCIRCULAR

About Starlink 30841

Description loading...

Live Position

Loading 3D Globe...

Upcoming Passes

Altitude History

Altitude vs Time

uPlot chart will show altitude changes over time

Two-Line Element Set

1 58208U 23170C 25302.65231487 .00001028 00000-0 91155-4 0 9990
2 58208 43.0040 188.3042 0001478 268.6004 91.4669 15.02537899110565
Epoch: Oct 29, 2025 • Age: 29 hours

Current Status

Altitude 558.5 km
Velocity 7.58 km/s
Sub-Earth Point 9.87°N, 5.09°W
Launch Date Nov 4, 2023
Age 1.9 years
Type internet

Technical Details

Classification Payload
Mass 730.00 kg
Dry Mass 700.00 kg
Total Mass 730.00 kg
Length 0.30 m
Diameter 4.10 m
Span 29.00 m
Shape Box + pan
Manufacturer SPXS
Bus Type Starlink V2M
Phase Status In Orbit
Owner/State SPXS/US

Large Constellations

Loading constellations...